Regional Weather Roundup
Issued by NWS Little Rock, AR

Home | Current Version | Previous Version | Graphics & Text | Print | Product List | Glossary On
Versions: 1 2 3 4 5 6 7 8 9 10 11 12 13 14 15 16 17 18 19 20 21 22 23 24 25 26 27 28 29 30 31 32 33 34 35 36 37 38 39 40 41 42 43 44 45 46 47 48 49 50
000
ASUS44 KLZK 221005
RWRLZK

WEATHER ROUNDUP FOR ARKANSAS
NATIONAL WEATHER SERVICE LITTLE ROCK AR
500 AM CDT TUE JUL 22 2014

NOTE: "FAIR" INDICATES FEW OR NO CLOUDS BELOW 12,000 FEET WITH NO
SIGNIFICANT WEATHER AND/OR OBSTRUCTIONS TO VISIBILITY.

ARZ001-003-010-029-221100-
NORTHWEST ARKANSAS

CITY           SKY/WX    TMP DP  RH WIND       PRES   REMARKS
FAYETTEVILLE   CLEAR     65  65 100 CALM      30.09F FOG
FORT SMITH     CLEAR     72  69  90 E3        30.05S
HARRISON       PTCLDY    67  66  97 CALM      30.11R
BENTONVILLE    CLEAR     68  64  88 CALM      30.10S
ROGERS         CLEAR     69  65  86 SE5       30.10F
SILOAM SPGS    CLEAR     68  61  77 SE5       30.10R
HIGHFILL       CLEAR     68  67  96 CALM      30.09S
$$

ARZ004-005-016-221100-
NORTH CENTRAL ARKANSAS

CITY           SKY/WX    TMP DP  RH WIND       PRES   REMARKS
BATESVILLE     CLOUDY    64  64 100 CALM      30.09R VSB<1/4
FLIPPIN        CLEAR     63  61  94 CALM      30.10R
MTN HOME       CLEAR     66  65  96 SE3       30.09R
$$

ARZ040-041-221100-
WEST CENTRAL ARKANSAS

CITY           SKY/WX    TMP DP  RH WIND       PRES   REMARKS
MENA           CLOUDY    66  64  94 CALM      30.10R
MOUNT IDA      FOG       64  63  96 CALM      30.08R VSB 3/4
$$

ARZ009-017-025-026-028-221100-
NORTHEAST ARKANSAS

CITY           SKY/WX    TMP DP  RH WIND       PRES   REMARKS
CORNING        FAIR      66  66 100 CALM      30.09S FOG
JONESBORO      CLEAR     65  63  93 CALM      30.08R FOG
NEWPORT        CLEAR     69  68  97 N8        30.09R FOG
WALNUT RIDGE   CLEAR     66  41  39 CALM      30.08R
BLYTHEVILLE    CLEAR     68  66  93 NW5       30.08R
$$

ARZ022-023-033-042-044-221100-
CENTRAL ARKANSAS

CITY           SKY/WX    TMP DP  RH WIND       PRES   REMARKS
LITTLE ROCK    CLEAR     70  66  87 CALM      30.08R
N LITTLE ROCK    N/A     69  67  95 N3        30.08R
JACKSONVILLE   CLEAR     65  64  96 W3        30.08R
SEARCY         CLEAR     65  65 100 CALM      30.09R FOG
HOT SPRINGS    FOG       67  66  97 CALM      30.08S VSB 1/2
RUSSELLVILLE   PTCLDY    67  65  93 CALM      30.08R FOG
CLINTON        FOG       64  64 100 CALM      30.10R VSB 1/4
$$

ARZ036-221100-
EAST ARKANSAS

CITY           SKY/WX    TMP DP  RH WIND       PRES   REMARKS
WEST MEMPHIS   CLEAR     68  68 100 CALM      30.07R FOG
$$

ARZ050-053-066-070-073-221100-
SOUTHWEST ARKANSAS

CITY           SKY/WX    TMP DP  RH WIND       PRES   REMARKS
ARKADELPHIA    FAIR      67  67 100 CALM      30.07F FOG
CAMDEN         FOG       66  64  94 CALM      30.06S VSB 3/4
TEXARKANA      CLEAR     69  68  96 NE3       30.06R
EL DORADO      CLEAR     66  66 100 CALM      30.06S
DE QUEEN       FOG       66  65  96 CALM      30.05R VSB 3/4
$$

ARZ056-057-069-221100-
SOUTHEAST ARKANSAS

CITY           SKY/WX    TMP DP  RH WIND       PRES   REMARKS
PINE BLUFF     MOCLDY    67  66  97 CALM      30.07R
STUTTGART      CLEAR     70  66  88 CALM      30.07S
MONTICELLO     CLEAR     67  66  97 CALM      30.05S

$$





USA.gov is the U.S. government's official web portal to all federal, state and local government web resources and services.